Weather History for Mojave, CA

Change the Weather History Date:

Saturday, May 10, 2014

  Actual Average Record
Temperature  
Mean Temperature 60 °F -  
Max Temperature 66 °F 76 °F 91 °F (2001)
Min Temperature 53 °F 51 °F 37 °F (1985)
Degree Days  
Heating Degree Days 6    
Growing Degree Days 10 (Base 50)    
Moisture  
Dew Point 31 °F    
Average Humidity 33    
Maximum Humidity 48    
Minimum Humidity 21    
Precipitation  
Precipitation 0.00 in - - ()
Sea Level Pressure  
Sea Level Pressure 29.88 in    
Wind  
Wind Speed 27 mph (WSW)    
Max Wind Speed 50 mph    
Max Gust Speed 68 mph    
Visibility 10 miles    
Events      
Averages and records for this station are not official NWS values.
T = Trace of Precipitation, MM = Missing Value Source: NWS Daily Summary

Daily Weather History Graph

Daily Weather History Graph

Search for Another Location

Airport:

Trip Planner

Search our weather history database for the weather conditions in past years. The results will help you decide how hot, cold, wet, or windy it might be!

Date:

Astronomy

May. 10, 2014 Rise Set
Actual Time 5:52 AM PDT 7:45 PM PDT
Civil Twilight 5:25 AM PDT 8:13 PM PDT
Nautical Twilight 4:51 AM PDT 8:47 PM PDT
Astronomical Twilight 4:15 AM PDT 9:23 PM PDT
Moon 3:55 PM PDT (5/10) 3:18 AM PDT (5/10)
Length of Visible Light 14h 48m
Length of Day
13h 52m
Waxing Gibbous, 83% of the Moon is Illuminated
May 10
Waxing Gibbous
May 14
Full
May 21
Last Quarter
May 28
New
Jun 5
First Quarter

Hourly Weather History & Observations

Time (PDT) Temp. Dew Point Humidity Pressure Visibility Wind Dir Wind Speed Gust Speed Precip Events Conditions
12:15 AM 60.8 °F 39.2 °F 45% 29.96 in 10.0 mi SSW 20.7 mph 35.7 mph N/A   Partly Cloudy
12:35 AM 62.6 °F 39.2 °F 42% 29.90 in 10.0 mi West 41.4 mph 67.9 mph N/A   Clear
12:55 AM 62.6 °F 39.2 °F 42% 29.92 in 10.0 mi WSW 33.4 mph 49.5 mph N/A   Clear
1:15 AM 60.8 °F 39.2 °F 45% 29.92 in 10.0 mi NW 25.3 mph 36.8 mph N/A   Clear
1:35 AM 60.8 °F 39.2 °F 45% 29.93 in 10.0 mi WNW 12.7 mph 29.9 mph N/A   Clear
1:55 AM 59.0 °F 39.2 °F 48% 29.93 in 10.0 mi NNW 11.5 mph 20.7 mph N/A   Clear
2:15 AM 59.0 °F 39.2 °F 48% 29.94 in 10.0 mi Calm Calm - N/A   Clear
2:55 AM 60.8 °F 37.4 °F 42% 29.93 in 10.0 mi East 6.9 mph - N/A   Clear
3:15 AM 59.0 °F 37.4 °F 45% 29.93 in 10.0 mi West 21.9 mph 40.3 mph N/A   Clear
3:35 AM 60.8 °F 35.6 °F 39% 29.92 in 10.0 mi North 13.8 mph 31.1 mph N/A   Clear
3:55 AM 60.8 °F 35.6 °F 39% 29.91 in 10.0 mi NW 29.9 mph 46.0 mph N/A   Clear
4:15 AM 59.0 °F 35.6 °F 42% 29.88 in 10.0 mi WNW 32.2 mph 43.7 mph N/A   Clear
4:35 AM 60.8 °F 32.0 °F 34% 29.90 in 10.0 mi WNW 27.6 mph 42.6 mph N/A   Clear
4:55 AM 59.0 °F 32.0 °F 36% 29.90 in 10.0 mi NW 35.7 mph 43.7 mph N/A   Clear
5:15 AM 59.0 °F 32.0 °F 36% 29.90 in 10.0 mi WSW 28.8 mph 33.4 mph N/A   Clear
5:35 AM 57.2 °F 32.0 °F 38% 29.93 in 10.0 mi West 8.1 mph 20.7 mph N/A   Clear
5:55 AM 57.2 °F 32.0 °F 38% 29.90 in 10.0 mi WSW 26.5 mph 35.7 mph N/A   Clear
6:15 AM 57.2 °F 32.0 °F 38% 29.86 in 10.0 mi WSW 41.4 mph 48.3 mph N/A   Clear
6:35 AM 57.2 °F 32.0 °F 38% 29.89 in 10.0 mi WSW 32.2 mph 42.6 mph N/A   Clear
6:55 AM 57.2 °F 35.6 °F 44% 29.86 in 10.0 mi West 41.4 mph 49.5 mph N/A   Clear
7:15 AM 57.2 °F 32.0 °F 38% 29.85 in 10.0 mi West 46.0 mph 54.1 mph N/A   Clear
7:35 AM 59.0 °F 32.0 °F 36% 29.83 in 10.0 mi West 44.9 mph 55.2 mph N/A   Clear
7:55 AM 59.0 °F 32.0 °F 36% 29.83 in 10.0 mi West 48.3 mph 58.7 mph N/A   Clear
8:15 AM 60.8 °F 30.2 °F 31% 29.84 in 10.0 mi West 36.8 mph 56.4 mph N/A   Clear
8:35 AM 62.6 °F 30.2 °F 30% 29.89 in 9.0 mi WSW 19.6 mph 41.4 mph N/A   Clear
8:55 AM 64.4 °F 30.2 °F 28% 29.87 in 10.0 mi West 33.4 mph 47.2 mph N/A   Clear
9:15 AM 64.4 °F 28.4 °F 26% 29.86 in 10.0 mi West 34.5 mph 44.9 mph N/A   Clear
9:35 AM 64.4 °F 28.4 °F 26% 29.86 in 10.0 mi West 35.7 mph 46.0 mph N/A   Clear
9:55 AM 62.6 °F 30.2 °F 30% 29.85 in 10.0 mi West 40.3 mph 49.5 mph N/A   Clear
10:15 AM 62.6 °F 32.0 °F 32% 29.87 in 10.0 mi West 38.0 mph 50.6 mph N/A   Clear
10:35 AM 64.4 °F 32.0 °F 30% 29.88 in 10.0 mi WSW 34.5 mph 48.3 mph N/A   Partly Cloudy
10:55 AM 62.6 °F 33.8 °F 34% 29.87 in 10.0 mi WSW 35.7 mph 43.7 mph N/A   Clear
11:15 AM 62.6 °F 35.6 °F 37% 29.86 in 10.0 mi WSW 39.1 mph 51.8 mph N/A   Clear
11:35 AM 64.4 °F 33.8 °F 32% 29.84 in 10.0 mi WSW 47.2 mph 57.5 mph N/A   Clear
11:55 AM 66.2 °F 33.8 °F 30% 29.83 in 10.0 mi West 49.5 mph 56.4 mph N/A   Clear
12:15 PM 66.2 °F 32.0 °F 28% 29.88 in 10.0 mi WSW 40.3 mph 49.5 mph N/A   Clear
12:35 PM 64.4 °F 32.0 °F 30% 29.90 in 10.0 mi WSW 38.0 mph 44.9 mph N/A   Partly Cloudy
12:55 PM 64.4 °F 32.0 °F 30% 29.90 in 10.0 mi WSW 33.4 mph 41.4 mph N/A   Clear
1:15 PM 64.4 °F 32.0 °F 30% 29.89 in 10.0 mi WSW 34.5 mph 42.6 mph N/A   Partly Cloudy
1:55 PM 66.2 °F 24.8 °F 21% 29.89 in 10.0 mi WSW 29.9 mph 36.8 mph N/A   Clear
2:15 PM 66.2 °F 24.8 °F 21% 29.90 in 10.0 mi West 24.2 mph 31.1 mph N/A   Clear
2:35 PM 64.4 °F 26.6 °F 24% 29.91 in 10.0 mi West 24.2 mph 39.1 mph N/A   Clear
2:55 PM 66.2 °F 26.6 °F 23% 29.90 in 10.0 mi West 23.0 mph 31.1 mph N/A   Clear
3:15 PM 66.2 °F 26.6 °F 23% 29.90 in 10.0 mi WSW 24.2 mph 29.9 mph N/A   Clear
3:35 PM 64.4 °F 26.6 °F 24% 29.89 in 10.0 mi WSW 24.2 mph 32.2 mph N/A   Clear
3:55 PM 64.4 °F 26.6 °F 24% 29.89 in 10.0 mi WSW 25.3 mph 32.2 mph N/A   Clear
4:15 PM 64.4 °F 26.6 °F 24% 29.88 in 10.0 mi West 18.4 mph 28.8 mph N/A   Clear
4:35 PM 64.4 °F 28.4 °F 26% 29.88 in 10.0 mi WSW 20.7 mph 32.2 mph N/A   Clear
4:55 PM 64.4 °F 32.0 °F 30% 29.86 in 10.0 mi WSW 28.8 mph 36.8 mph N/A   Clear
5:15 PM 64.4 °F 32.0 °F 30% 29.85 in 10.0 mi WSW 25.3 mph 29.9 mph N/A   Clear
5:35 PM 64.4 °F 32.0 °F 30% 29.83 in 10.0 mi WSW 27.6 mph 36.8 mph N/A   Clear
5:55 PM 62.6 °F 30.2 °F 30% 29.82 in 10.0 mi WSW 35.7 mph 44.9 mph N/A   Clear
6:15 PM 62.6 °F 28.4 °F 27% 29.83 in 10.0 mi WSW 33.4 mph 43.7 mph N/A   Clear
6:35 PM 62.6 °F 28.4 °F 27% 29.83 in 10.0 mi WSW 33.4 mph 39.1 mph N/A   Clear
6:55 PM 62.6 °F 28.4 °F 27% 29.84 in 10.0 mi WSW 21.9 mph 39.1 mph N/A   Clear
7:15 PM 60.8 °F 30.2 °F 31% 29.84 in 10.0 mi WSW 20.7 mph 32.2 mph N/A   Clear
7:35 PM 59.0 °F 32.0 °F 36% 29.83 in 10.0 mi WSW 19.6 mph 31.1 mph N/A   Clear
7:55 PM 59.0 °F 30.2 °F 34% 29.84 in 10.0 mi WSW 21.9 mph 33.4 mph N/A   Clear
8:15 PM 59.0 °F 32.0 °F 36% 29.84 in 10.0 mi WSW 17.3 mph 25.3 mph N/A   Clear
8:35 PM 59.0 °F 32.0 °F 36% 29.85 in 10.0 mi WSW 18.4 mph 26.5 mph N/A   Clear
8:55 PM 57.2 °F 28.4 °F 33% 29.85 in 10.0 mi WSW 17.3 mph 21.9 mph N/A   Partly Cloudy
9:15 PM 57.2 °F 26.6 °F 31% 29.85 in 10.0 mi SW 12.7 mph 17.3 mph N/A   Scattered Clouds
9:35 PM 57.2 °F 23.0 °F 27% 29.86 in 10.0 mi SSW 12.7 mph 18.4 mph N/A   Overcast
9:55 PM 57.2 °F 23.0 °F 27% 29.88 in 10.0 mi SW 16.1 mph 20.7 mph N/A   Overcast
10:15 PM 57.2 °F 28.4 °F 33% 29.88 in 10.0 mi SSW 17.3 mph - N/A   Mostly Cloudy
10:35 PM 55.4 °F 26.6 °F 33% 29.89 in 10.0 mi SSW 16.1 mph 29.9 mph N/A   Partly Cloudy
10:55 PM 55.4 °F 26.6 °F 33% 29.90 in 10.0 mi SW 21.9 mph 25.3 mph N/A   Clear
11:15 PM 55.4 °F 24.8 °F 31% 29.91 in 10.0 mi WSW 15.0 mph 23.0 mph N/A   Clear
11:35 PM 53.6 °F 24.8 °F 33% 29.92 in 10.0 mi WSW 11.5 mph - N/A   Clear
11:55 PM 53.6 °F 26.6 °F 35% 29.90 in 10.0 mi WSW 21.9 mph 27.6 mph N/A   Clear